www.pogodaiklimat.ru
ПОГОДА в Агуадилье
Время
и дата
11:50 14.07
12:50 14.07
13:50 14.07
14:50 14.07
15:50 14.07
16:50 14.07
17:50 14.07
18:50 14.07
19:50 14.07
20:50 14.07
21:50 14.07
22:50 14.07
23:50 14.07
00:50 15.07
06:50 15.07
07:50 15.07
08:50 15.07
09:50 15.07
10:50 15.07
11:50 15.07
12:50 15.07
13:50 15.07
14:50 15.07
15:50 15.07
16:50 15.07
17:50 15.07
18:50 15.07
19:50 15.07
20:50 15.07
06:50 16.07
07:50 16.07
08:50 16.07
09:50 16.07
10:50 16.07
11:50 16.07
12:50 16.07
13:50 16.07
14:50 16.07
15:50 16.07
16:50 16.07
17:50 16.07
18:50 16.07
19:50 16.07
20:50 16.07
21:50 16.07
22:50 16.07
06:50 17.07
07:50 17.07
Ветер
(напр.,м/с)
Видим. Явления Облачность Т
(С)
Тd
(С)
f
(%)
Тe
(С)
Тes
(С)
Комфортность P
(гПа)
Po
(гПа)
Тmin
(С)
Tmax
(С)
R
(мм)
R24
(мм)
S
(см)
СВ 8
{10}
16 км 8/8 570 м +32.0 +26.0 71 +48 +48 очень
душно
1008.8
СВ 7 16 км 5/5 630 м +32.0 +26.0 71 +48 +51 опасность
перегрева
1008.5
СВ 7
{10}
16 км 8/8 570 м +32.0 +26.0 71 +48 +49 очень
душно
1007.8
СВ 8
{11}
16 км 5/5 30 м +31.0 +25.0 70 +44 +46 опасность
перегрева
1007.2
В 8
{10}
16 км 5/5 540 м +31.0 +26.0 75 +46 +48 опасность
перегрева
1007.2
В 5 16 км 8/8 660 м +31.0 +25.0 70 +44 +45 очень
душно
1007.5
В 7 16 км 8/8 600 м +31.0 +25.0 70 +44 +45 очень
душно
1007.5
В 5 16 км 5/5 540 м +29.0 +25.0 79 +42 +42 опасность
перегрева
1007.8
В 5 16 км ясно +28.0 +24.0 79 +39 +39 очень
душно
1007.8
В 5
{8}
16 км 5/5 450 м +28.0 +25.0 84 +40 +40 очень
душно
1008.2
В 6 16 км 5/5 810 м +28.0 +24.0 79 +39 +39 очень
душно
1008.5
В 4 16 км 5/5 450 м +27.0 +25.0 89 +39 +39 очень
душно
1008.8
В 3 16 км ясно +26.0 +24.0 89 +36 +36 очень
душно
1008.8
В 3 16 км 5/5 540 м +26.0 +24.0 89 +36 +36 очень
душно
1008.2
штиль 0 16 км 5/5 1800 м +25.0 +23.0 89 +33 +33 очень
душно
1008.2
В 3 16 км 5/5 1500 м +28.0 +23.0 74 +37 +38 очень
душно
1008.2
В 4 16 км 5/5 720 м +29.0 +23.0 70 +39 +40 очень
душно
1008.5
СВ 5
{8}
16 км 5/5 1050 м +29.0 +23.0 70 +39 +41 очень
душно
1008.2
В 7
{11}
16 км ясно +31.0 +22.0 59 +40 +44 очень
душно
1008.2
СВ 7
{9}
16 км ясно +31.0 +22.0 59 +40 +45 очень
душно
1008.2
СВ 8
{10}
16 км ясно +32.0 +23.0 59 +42 +46 опасность
перегрева
1007.8
В 7
{10}
16 км ясно +31.0 +23.0 62 +41 +47 опасность
перегрева
1007.2
СВ 8
{11}
16 км ясно +31.0 +22.0 59 +40 +43 очень
душно
1006.8
В 7 16 км ясно +31.0 +23.0 62 +41 +45 опасность
перегрева
1006.1
В 7
{8}
16 км ясно +31.0 +22.0 59 +40 +42 очень
душно
1006.5
СВ 6 16 км 5/5 660 м +29.0 +24.0 74 +40 +41 очень
душно
1006.5
В 4 16 км ясно +28.0 +23.0 74 +37 +38 очень
душно
1006.8
В 3 16 км ясно +27.0 +23.0 79 +36 +36 очень
душно
1007.2
В 3 16 км ясно +27.0 +23.0 79 +36 +36 очень
душно
1007.8
ЮВ 2 16 км ясно +24.0 +19.0 74 +29 +29 душно 1007.5
В 3 16 км ясно +27.0 +22.0 74 +35 +36 очень
душно
1008.2
В 5 16 км ясно +29.0 +22.0 66 +37 +40 очень
душно
1008.5
В 4 16 км 5/5 1080 м +31.0 +22.0 59 +40 +43 очень
душно
1008.5
СВ 7 16 км 5/5 990 м +31.0 +24.0 66 +43 +45 опасность
перегрева
1008.8
СВ 8
{11}
16 км 5/5 1650 m
[Ac]
+32.0 +24.0 63 +44 +46 опасность
перегрева
1008.2
В 8
{10}
16 км 5/5 750 м +32.0 +24.0 63 +44 +46 опасность
перегрева
1008.2
В 6 16 км 10/5 690 m
[Ac]
+27.0 +24.0 84 +37 +39 очень
душно
1007.5
СВ 3 8 км дождь 10/8 600 m
[Ac Ns]
+28.0 +25.0 84 +40 +41 очень
душно
1007.2
ЮВ 2 16 км 8/8 1290 m
[Ac]
+30.0 +23.0 66 +40 +43 очень
душно
1006.8
В 5 16 км 8/8 600 м +29.0 +25.0 79 +42 +43 очень
душно
1006.8
В 6 16 км гроза 8/5 1950 m
[Ac Cb]
+29.0 +23.0 70 +39 +39 очень
душно
1007.5
В 4 16 км гроза 8/8 1800 m
[Cb]
+27.0 +23.0 79 +36 +36 очень
душно
1008.2
В 4 16 км ясно +26.0 +23.0 84 +35 +35 очень
душно
1008.8
ЮВ 2 16 км ясно +26.0 +23.0 84 +35 +35 очень
душно
1009.2
штиль 0 16 км ясно +26.0 +23.0 84 +35 +35 очень
душно
1009.8
ЮВ 2 16 км ясно +25.0 +22.0 83 +32 +32 очень
душно
1009.2
штиль 0 16 км ясно +24.0 +22.0 89 +31 +31 очень
душно
1008.5
В 3 16 км ясно +28.0 +23.0 74 +37 +38 очень
душно
1008.8
Местоположение метеостанции Rafael Hernandez Airport: широта 18.5000 долгота -67.1333 высота над уровнем моря 72 м.
В архиве по умолчанию представлена погода в Агуадилье за последние 1-2 суток. Обновление информации о фактической погоде в базе происходит ежечасно! Архивные данные за месяц целиком и за предыдущие месяцы Вы можете получить, выбрав интересующий диапазон дат из раскрывающегося списка и нажав кнопку "Ввод!".
Внимание! Архив погоды МЕТАР в базе сайта по станциям, не включенным в климатический монитор, хранится не более 60 дней. Нет смысла пытаться выбрать более раннюю дату.
*Определитесь, кто Вы:
Внимание! Время в таблицах - местное (без учета летнего времени). Для получения всемирного времени необходимо вычесть поправку, которая равна -4 ч.
Смотрите также архив погоды в соседних городах и на ближайших метеорологических станциях:
Партнеры нашего сайта:      
Пояснения к столбцам:
  • Ветер - указаны скорость ветра в м/с - средняя за 10 мин, порывы в срок и между сроками (в фигурных скобках) и направление, откуда дует ветер: С - северный,
  • СВ - северо-восточный, В - восточный, ЮВ - юго-восточный, Ю - южный, ЮЗ - юго-западный, З - западный, СЗ - северо-западный.
  • Видимость - горизонтальная дальность видимости в метрах или километрах. При видимости от 1 до 10 км при отсутствии осадков обычно наблюдается дымка, при ухудшении видимости до 1 км и менее - туман. В сухую погоду видимость может ухудшаться дымом, пылью или мглою.
  • Явления - указаны атмосферные явления, наблюдавшиеся в срок или в последний час перед сроком; фигурными скобками обозначены явления, наблюдавшиеся между сроками (за 1-3 часа до срока); квадратными скобками обозначены град или гололедные отложения с указанием их диаметра в мм.
  • Облачность - указаны через наклонную черту общая и нижняя облачность в баллах и высота нижней границы облаков в метрах; квадратными скобками обозначены формы облаков: Ci - перистые, Cs - перисто-слоистые, Cc - перисто-кучевые, Ac - высококучевые, As - высокослоистые, Sc - слоисто-кучевые, Ns - слоисто-дождевые, Cu - кучевые, Cb - кучево-дождевые. Подробнее классификацию облаков см. в Атласе облаков (PDF).
  • T - Температура воздуха - температура, измеренная на высоте 2 м над землей.
  • Td - Температура точки росы - температура, при понижении до которой содержащийся в воздухе водяной пар достигнет насыщения.
  • f - Относительная влажность воздуха - влажноcть воздуха, измеренная на высоте 2 м над землей.
  • Te - Эффективная температура - температура, которую ощущает одетый по сезону человек в тени. Характеристика душности погоды. При расчете учитывается влияние влажности воздуха и скорости ветра на теплоощущения человека.
  • Tes - Эффективная температура на солнце - температура, которую ощущает человек, с поправкой на солнечный нагрев. Характеристика знойности погоды. Зависит от высоты солнца над горизонтом, облачности и скорости ветра. Ночью, в пасмурную погоду, а также при ветре 12 м/с и более поправка равна нулю.
  • P - Атмосферное давление - приведенное к уровню моря атмосферное давление.
  • Po - Атмосферное давление - измеренное на уровне метеостанции атмосферное давление.
  • Tmin - Минимальная температура - минимум температуры воздуха на высоте 2 м над землей.
  • Tmax - Максимальная температура - максимум температуры воздуха на высоте 2 м над землей.
  • R - Количество осадков - Количество выпавших осадков за период времени, мм. При наведении курсора мыши на число - период времени, за который выпало указанное количество осадков.
  • R24 - Количество осадков - Количество выпавших осадков за 24 часа, мм.
  • S - Снежный покров - Высота снежного покрова, см. При наведении курсора мыши на число - состояние снежного покрова и степень покрытия местности в баллах.